Torna al catalogo

KUIPER-00140

AttivoComunicazioniLEO
NORAD 65965·PAYLOAD·🇺🇸 United States

Lanciato Oct 14, 2025 da Cape Canaveral Space Force Station

Loading…

Prossimi Passaggi (prossime 24 ore)

TLE

AggiornatoSource: CelesTrak SupGP

Epoca: Sep 14, 2026, 19:48 UTC

1 65965C 25228U   26257.82546296  .00003297  00000+0  43161-3 0  2579
2 65965  51.8978 229.2981 0000962  62.7993 279.2916 14.79921795    18

Traccia KUIPER-00140 in tempo reale con AllMySat

Download on the App Store